This demonstration page uses our WeatherBlox Daily Observations layout. Learn more.

Left ArrowRight Arrow

39.51506, -84.39828

Hourly Observations for November 1, 2021

Temp ( °F °C ) Dew Point ( °F °C ) Humidity (%) Winds ( mph kmh ) Pressure ( in mb ) Visibility ( mi km ) Precip ( " mm )
12:15 am 00:15 Clear 45 7.4 40 4.6 83 83 WNW 5 7 30.18 1022 10 16 0.00 0.00
12:35 am 00:35 Clear 45 7.1 40 4.7 85 85 W 6 9 30.18 1022 10 16 0.00 0.00
12:55 am 00:55 Clear 44 6.8 40 4.7 87 87 W 5 7 30.18 1022 10 16 0.00 0.00
1:15 am 01:15 Clear 43 6.2 40 4.6 90 90 WNW 5 7 30.19 1022 10 16 0.00 0.00
1:35 am 01:35 Clear 42 5.8 40 4.3 90 90 NW 3 6 30.19 1022 10 16 0.00 0.00
1:55 am 01:55 Clear 43 5.9 40 4.6 91 91 WNW 6 9 30.19 1022 10 16 0.00 0.00
2:15 am 02:15 Clear 42 5.6 40 4.3 91 91 NW 5 7 30.20 1023 10 16 0.01 0.25
2:35 am 02:35 Clear 43 5.9 41 4.8 93 93 WNW 7 11 30.20 1023 10 16 0.01 0.25
2:55 am 02:55 Clear 43 6 41 5 93 93 WNW 7 11 30.21 1023 10 16 0.01 0.25
3:15 am 03:15 Clear 43 5.9 41 5 94 94 WNW 6 9 30.21 1023 10 16 0.00 0.00
3:35 am 03:35 Clear 42 5.6 41 4.8 95 95 WNW 6 9 30.22 1023 10 16 0.00 0.00
3:55 am 03:55 Clear 42 5.7 40 4.6 93 93 NW 6 9 30.22 1023 10 16 0.00 0.00
4:15 am 04:15 Clear 42 5.5 39 4.1 91 91 NW 5 7 30.23 1024 10 16 0.00 0.00
4:35 am 04:35 Clear 41 5 38 3.6 91 91 NW 5 7 30.23 1024 10 16 0.00 0.00
4:55 am 04:55 Clear 41 5.2 38 3.4 88 88 NW 6 9 30.24 1024 10 16 0.00 0.00
5:15 am 05:15 Clear 40 4.7 38 3.1 90 90 NW 7 11 30.25 1024 10 16 0.00 0.00
5:35 am 05:35 Clear 41 5.1 38 3.1 87 87 NNW 5 7 30.26 1025 10 16 0.00 0.00
5:55 am 05:55 Clear 41 4.9 37 2.6 85 85 NW 6 9 30.26 1025 10 16 0.00 0.00
6:15 am 06:15 Clear 40 4.6 36 2.3 85 85 NNW 3 6 30.27 1025 10 16 0.00 0.00
6:35 am 06:35 Clear 39 3.7 36 2.4 91 91 Calm 30.29 1026 10 16 0.00 0.00
6:55 am 06:55 Clear 39 3.7 36 2 89 89 Calm 30.29 1026 10 16 0.01 0.25
7:15 am 07:15 Clear 38 3.4 35 1.9 90 90 Calm 30.29 1026 10 16 0.00 0.00
7:35 am 07:35 Clear 38 3.6 35 1.9 89 89 Calm 30.30 1026 10 16 0.00 0.00
7:55 am 07:55 Clear 38 3.6 35 1.5 86 86 SW 3 6 30.31 1026 10 16 0.00 0.00
8:15 am 08:15 Sunny 37 2.5 34 1.3 92 92 SSE 5 7 30.31 1026 10 16 0.00 0.00
8:35 am 08:35 Sunny 37 3 37 2.5 97 97 WSW 5 7 30.32 1027 10 16 0.00 0.00
8:55 am 08:55 Sunny 39 3.9 37 2.8 93 93 SW 5 7 30.32 1027 10 16 0.00 0.00
9:15 am 09:15 Sunny 40 4.7 37 2.8 88 88 SW 3 6 30.33 1027 10 16 0.00 0.00
9:35 am 09:35 Sunny 41 5.2 37 2.5 83 83 Calm 30.33 1027 10 16 0.00 0.00
9:55 am 09:55 Sunny 43 6.2 37 2.8 79 79 Calm 30.34 1027 10 16 0.00 0.00
10:15 am 10:15 Sunny 45 7 36 2.4 73 73 Calm 30.34 1027 10 16 0.00 0.00
10:35 am 10:35 Sunny 46 7.7 34 1.3 64 64 Calm 30.33 1027 10 16 0.00 0.00
10:55 am 10:55 Sunny 47 8.6 34 1.2 60 60 Calm 30.34 1028 10 16 0.01 0.25
11:15 am 11:15 Sunny 48 9.1 34 1 57 57 SSW 3 6 30.34 1027 10 16 0.00 0.00
11:35 am 11:35 Sunny 50 10.1 32 0 50 50 WNW 6 9 30.34 1027 10 16 0.00 0.00
11:55 am 11:55 Sunny 51 10.5 30 -1.1 45 45 N 7 11 30.33 1027 10 16 0.00 0.00
12:15 pm 12:15 Sunny 51 10.4 29 -1.9 43 43 Calm 30.33 1027 10 16 0.00 0.00
12:35 pm 12:35 Sunny 52 11 29 -1.8 41 41 W 6 9 30.33 1027 10 16 0.00 0.00
12:55 pm 12:55 Sunny 52 10.9 29 -1.9 41 41 W 6 9 30.32 1027 10 16 0.00 0.00
1:15 pm 13:15 Sunny 52 11.1 29 -1.8 41 41 NW 6 9 30.32 1027 10 16 0.00 0.00
1:35 pm 13:35 Sunny 53 11.6 28 -2.2 38 38 W 10 17 30.30 1026 10 16 0.00 0.00
1:55 pm 13:55 Sunny 53 11.5 28 -2.5 38 38 W 7 11 30.30 1026 10 16 0.00 0.00
2:15 pm 14:15 Sunny 53 11.7 26 -3.3 35 35 WSW 7 11 30.28 1026 10 16 0.00 0.00
2:35 pm 14:35 Sunny 54 12 28 -2 38 38 WSW 9 15 30.28 1026 10 16 0.00 0.00
2:55 pm 14:55 Sunny 54 12.1 28 -2.5 36 36 WNW 7 11 30.28 1026 10 16 0.00 0.00
3:15 pm 15:15 Sunny 54 12.1 26 -3.2 35 35 W 12 19 30.28 1026 10 16 0.00 0.00
3:35 pm 15:35 Sunny 54 12.4 27 -3 34 34 W 6 9 30.27 1025 10 16 0.00 0.00
3:55 pm 15:55 Sunny 54 12 26 -3.2 35 35 WNW 9 15 30.27 1025 10 16 0.00 0.00
4:15 pm 16:15 Partly Cloudy 54 12 27 -2.7 36 36 NW 5 7 30.26 1025 10 16 0.00 0.00
4:35 pm 16:35 Partly Cloudy 53 11.7 28 -2.5 37 37 WNW 7 11 30.26 1025 10 16 0.01 0.25
4:55 pm 16:55 Mostly Cloudy 53 11.5 28 -2.2 39 39 W 8 13 30.28 1025 10 16 0.01 0.25
5:15 pm 17:15 Cloudy 51 10.8 28 -2 41 41 WNW 9 15 30.28 1025 10 16 0.00 0.00
5:35 pm 17:35 Cloudy 51 10.5 27 -2.7 40 40 NW 9 15 30.28 1025 10 16 0.00 0.00
5:55 pm 17:55 Cloudy 51 10.3 27 -2.7 40 40 WNW 9 15 30.29 1026 10 16 0.00 0.00
6:15 pm 18:15 Cloudy 50 10 28 -2.2 43 43 WNW 7 11 30.29 1026 10 16 0.00 0.00
6:35 pm 18:35 Cloudy 49 9.5 29 -1.7 46 46 WNW 6 9 30.28 1025 10 16 0.00 0.00
6:55 pm 18:55 Cloudy 49 9.2 30 -1.3 48 48 NW 9 15 30.29 1026 10 16 0.00 0.00
7:15 pm 19:15 Cloudy 48 8.9 30 -0.9 51 51 WNW 7 11 30.30 1026 10 16 0.00 0.00
7:35 pm 19:35 Cloudy 47 8.6 31 -0.4 54 54 NW 7 11 30.30 1026 10 16 0.00 0.00
7:55 pm 19:55 Cloudy 47 8.5 30 -1 52 52 WNW 8 13 30.30 1026 10 16 0.00 0.00
8:15 pm 20:15 Cloudy 47 8.3 30 -0.9 53 53 NW 9 15 30.30 1026 10 16 0.00 0.00
8:35 pm 20:35 Cloudy 47 8.1 30 -1.2 52 52 NW 10 17 30.30 1026 10 16 0.00 0.00
8:55 pm 20:55 Cloudy 46 7.8 29 -1.4 53 53 NW 9 15 30.31 1027 10 16 0.00 0.00
9:15 pm 21:15 Cloudy 46 7.6 30 -1.3 54 54 WNW 9 15 30.32 1027 10 16 0.00 0.00
9:35 pm 21:35 Cloudy 46 7.5 30 -1 55 55 WNW 6 9 30.33 1027 10 16 0.00 0.00
9:55 pm 21:55 Cloudy 45 7.3 31 -0.8 57 57 WNW 7 11 30.33 1027 10 16 0.00 0.00
10:15 pm 22:15 Cloudy 45 7.2 31 -0.5 58 58 WNW 6 9 30.33 1027 10 16 0.00 0.00
10:35 pm 22:35 Cloudy 45 7.1 31 -0.3 60 60 WNW 6 9 30.34 1027 10 16 0.00 0.00
10:55 pm 22:55 Cloudy 45 7 32 0 61 61 NW 5 7 30.33 1027 10 16 0.00 0.00
11:15 pm 23:15 Cloudy 44 6.9 32 0 62 62 WNW 5 7 30.33 1027 10 16 0.00 0.00
11:35 pm 23:35 Cloudy 44 6.6 33 0.5 65 65 WNW 5 7 30.34 1027 10 16 0.00 0.00
11:55 pm 23:55 Cloudy 44 6.5 33 0.6 66 66 WNW 5 7 30.33 1027 10 16 0.00 0.00

Powered by AerisWeather